• Em Portugal
  • Lista de países
  • Para 7 dias
  • Temperatura da água
  • Mapas de satélite
  • Mapa do tempo
  • Widgets de tempo
  • user-avatar
    Iniciar Sessão

    Previsão horária em Panevėžys

    Hoje, 20 Fevereiro, Terça-feira

    Tempo Temperatura Precipitação Vento Pressão Humidade
    00:00 -4°C° 0 mm 1 m/s 763 mmHg 93%
    01:00 -4°C° 0 mm 1 m/s 764 mmHg 93%
    02:00 -6°C° 0 mm 1 m/s 764 mmHg 95%
    03:00 -6°C° 0 mm 1 m/s 764 mmHg 95%
    04:00 -6°C° 0 mm 1 m/s 763 mmHg 95%
    05:00 -6°C° 0 mm 1 m/s 763 mmHg 95%
    06:00 -6°C° 0,1 mm 1 m/s 763 mmHg 95%
    07:00 -6°C° 0,1 mm 1 m/s 763 mmHg 95%
    08:00 -6°C° 0,1 mm 1 m/s 763 mmHg 95%
    09:00 -6°C° 0,1 mm 1 m/s 763 mmHg 92%
    10:00 -4°C° 0,1 mm 1 m/s 764 mmHg 90%
    11:00 -3°C° 0,1 mm 1 m/s 764 mmHg 88%
    12:00 -3°C° 0 mm 1 m/s 764 mmHg 86%
    13:00 -3°C° 0 mm 1 m/s 763 mmHg 84%
    14:00 -2°C° 0 mm 1 m/s 763 mmHg 82%
    15:00 -3°C° 0 mm 1 m/s 763 mmHg 84%
    16:00 -3°C° 0 mm 1 m/s 763 mmHg 85%
    17:00 -3°C° 0 mm 1 m/s 763 mmHg 87%
    18:00 -4°C° 0 mm 1 m/s 763 mmHg 89%
    19:00 -7°C° 0 mm 2 m/s 763 mmHg 90%
    20:00 -8°C° 0 mm 2 m/s 763 mmHg 91%
    21:00 -7°C° 0 mm 1 m/s 763 mmHg 91%
    22:00 -8°C° 0 mm 1 m/s 764 mmHg 92%
    23:00 -8°C° 0 mm 1 m/s 764 mmHg 92%

    Amanhã, 21 Fevereiro, Quarta-feira

    Tempo Temperatura Precipitação Vento Pressão Humidade
    00:00 -8°C° 0 mm 1 m/s 764 mmHg 92%
    01:00 -9°C° 0 mm 1 m/s 764 mmHg 92%
    02:00 -9°C° 0 mm 1 m/s 764 mmHg 93%
    03:00 -9°C° 0 mm 1 m/s 764 mmHg 93%
    04:00 -10°C° 0 mm 1 m/s 763 mmHg 93%
    05:00 -10°C° 0 mm 1 m/s 763 mmHg 93%
    06:00 -10°C° 0 mm 1 m/s 763 mmHg 93%
    07:00 -10°C° 0 mm 1 m/s 763 mmHg 94%
    08:00 -10°C° 0 mm 1 m/s 763 mmHg 94%
    09:00 -9°C° 0 mm 1 m/s 763 mmHg 92%
    10:00 -8°C° 0 mm 1 m/s 763 mmHg 89%
    11:00 -8°C° 0 mm 2 m/s 763 mmHg 87%
    12:00 -8°C° 0 mm 2 m/s 763 mmHg 85%
    13:00 -7°C° 0 mm 2 m/s 763 mmHg 82%
    14:00 -7°C° 0 mm 2 m/s 763 mmHg 80%
    15:00 -7°C° 0 mm 2 m/s 763 mmHg 82%
    16:00 -7°C° 0 mm 2 m/s 763 mmHg 83%
    17:00 -7°C° 0 mm 2 m/s 763 mmHg 85%
    18:00 -8°C° 0 mm 2 m/s 764 mmHg 87%
    19:00 -8°C° 0 mm 2 m/s 764 mmHg 89%
    20:00 -9°C° 0 mm 2 m/s 764 mmHg 91%
    21:00 -10°C° 0 mm 2 m/s 765 mmHg 92%
    22:00 -10°C° 0 mm 2 m/s 765 mmHg 92%
    23:00 -12°C° 0 mm 2 m/s 765 mmHg 93%

    Depois de amanhã, 22 Fevereiro, Quinta-feira

    Tempo Temperatura Precipitação Vento Pressão Humidade
    00:00 -12°C° 0 mm 2 m/s 766 mmHg 93%
    01:00 -13°C° 0 mm 2 m/s 766 mmHg 94%
    02:00 -14°C° 0 mm 2 m/s 766 mmHg 94%
    03:00 -14°C° 0 mm 2 m/s 766 mmHg 94%
    04:00 -14°C° 0 mm 2 m/s 766 mmHg 95%
    05:00 -15°C° 0 mm 2 m/s 766 mmHg 95%
    06:00 -15°C° 0 mm 2 m/s 766 mmHg 95%
    07:00 -15°C° 0 mm 2 m/s 767 mmHg 95%
    08:00 -15°C° 0 mm 2 m/s 767 mmHg 95%
    09:00 -14°C° 0 mm 2 m/s 767 mmHg 93%
    10:00 -13°C° 0 mm 2 m/s 767 mmHg 90%
    11:00 -12°C° 0 mm 2 m/s 767 mmHg 87%
    12:00 -10°C° 0 mm 2 m/s 767 mmHg 85%
    13:00 -9°C° 0 mm 2 m/s 767 mmHg 83%
    14:00 -9°C° 0 mm 2 m/s 767 mmHg 80%
    15:00 -9°C° 0 mm 2 m/s 767 mmHg 82%
    16:00 -9°C° 0 mm 2 m/s 767 mmHg 84%
    17:00 -10°C° 0 mm 2 m/s 767 mmHg 86%
    18:00 -12°C° 0 mm 2 m/s 767 mmHg 88%
    19:00 -12°C° 0 mm 2 m/s 767 mmHg 90%
    20:00 -13°C° 0 mm 2 m/s 767 mmHg 91%
    21:00 -12°C° 0 mm 1 m/s 767 mmHg 92%
    22:00 -12°C° 0 mm 1 m/s 767 mmHg 92%
    23:00 -12°C° 0 mm 1 m/s 767 mmHg 93%

    23 Fevereiro, Sexta-feira

    Tempo Temperatura Precipitação Vento Pressão Humidade
    00:00 -13°C° 0 mm 1 m/s 767 mmHg 93%
    01:00 -13°C° 0 mm 1 m/s 767 mmHg 93%
    02:00 -13°C° 0 mm 1 m/s 767 mmHg 94%
    03:00 -14°C° 0 mm 1 m/s 767 mmHg 94%
    04:00 -14°C° 0 mm 1 m/s 766 mmHg 94%
    05:00 -14°C° 0 mm 1 m/s 766 mmHg 94%
    06:00 -14°C° 0 mm 1 m/s 766 mmHg 95%
    07:00 -14°C° 0 mm 1 m/s 766 mmHg 95%
    08:00 -14°C° 0 mm 0 m/s 766 mmHg 95%
    09:00 -13°C° 0 mm 1 m/s 766 mmHg 92%
    10:00 -11°C° 0 mm 1 m/s 765 mmHg 89%
    11:00 -10°C° 0 mm 1 m/s 765 mmHg 86%
    12:00 -9°C° 0,1 mm 1 m/s 765 mmHg 84%
    13:00 -8°C° 0,1 mm 1 m/s 765 mmHg 83%
    14:00 -8°C° 0,1 mm 1 m/s 764 mmHg 82%
    15:00 -8°C° 0,1 mm 1 m/s 764 mmHg 84%
    16:00 -9°C° 0,1 mm 2 m/s 764 mmHg 86%
    17:00 -9°C° 0,1 mm 2 m/s 765 mmHg 88%
    18:00 -10°C° 0,1 mm 2 m/s 765 mmHg 88%
    19:00 -13°C° 0,1 mm 3 m/s 766 mmHg 89%
    20:00 -14°C° 0,1 mm 4 m/s 766 mmHg 90%
    21:00 -14°C° 0 mm 3 m/s 767 mmHg 90%
    22:00 -15°C° 0 mm 3 m/s 767 mmHg 91%
    23:00 -16°C° 0 mm 3 m/s 768 mmHg 92%

    24 Fevereiro, Sábado

    Tempo Temperatura Precipitação Vento Pressão Humidade
    00:00 -17°C° 0 mm 4 m/s 768 mmHg 92%
    01:00 -18°C° 0 mm 4 m/s 768 mmHg 93%
    02:00 -18°C° 0 mm 4 m/s 769 mmHg 93%
    03:00 -18°C° 0 mm 4 m/s 769 mmHg 92%
    04:00 -18°C° 0 mm 4 m/s 769 mmHg 92%
    05:00 -19°C° 0 mm 5 m/s 769 mmHg 91%
    06:00 -19°C° 0 mm 5 m/s 770 mmHg 91%
    07:00 -19°C° 0 mm 5 m/s 770 mmHg 90%
    08:00 -19°C° 0 mm 5 m/s 770 mmHg 90%
    09:00 -18°C° 0 mm 5 m/s 771 mmHg 88%
    10:00 -18°C° 0 mm 5 m/s 771 mmHg 87%
    11:00 -17°C° 0 mm 5 m/s 771 mmHg 85%
    12:00 -15°C° 0 mm 5 m/s 771 mmHg 84%
    13:00 -15°C° 0 mm 5 m/s 771 mmHg 83%
    14:00 -14°C° 0 mm 5 m/s 771 mmHg 82%
    15:00 -15°C° 0 mm 5 m/s 771 mmHg 82%
    16:00 -15°C° 0 mm 5 m/s 771 mmHg 83%
    17:00 -15°C° 0 mm 5 m/s 771 mmHg 83%
    18:00 -17°C° 0 mm 5 m/s 771 mmHg 85%
    19:00 -18°C° 0 mm 5 m/s 772 mmHg 86%
    20:00 -18°C° 0 mm 4 m/s 772 mmHg 88%
    21:00 -18°C° 0 mm 4 m/s 772 mmHg 89%
    22:00 -19°C° 0 mm 4 m/s 772 mmHg 90%
    23:00 -19°C° 0 mm 4 m/s 773 mmHg 90%

    25 Fevereiro, Domingo

    Tempo Temperatura Precipitação Vento Pressão Humidade
    00:00 -20°C° 0 mm 4 m/s 773 mmHg 91%
    01:00 -20°C° 0 mm 4 m/s 773 mmHg 91%
    02:00 -20°C° 0 mm 4 m/s 773 mmHg 92%
    03:00 -22°C° 0 mm 4 m/s 773 mmHg 92%
    04:00 -22°C° 0 mm 4 m/s 773 mmHg 92%
    05:00 -22°C° 0 mm 4 m/s 773 mmHg 92%
    06:00 -23°C° 0 mm 4 m/s 773 mmHg 92%
    07:00 -23°C° 0 mm 4 m/s 773 mmHg 92%
    08:00 -23°C° 0 mm 4 m/s 773 mmHg 92%
    09:00 -22°C° 0 mm 4 m/s 773 mmHg 90%
    10:00 -20°C° 0 mm 4 m/s 773 mmHg 88%
    11:00 -19°C° 0 mm 4 m/s 773 mmHg 86%
    12:00 -18°C° 0 mm 4 m/s 773 mmHg 84%
    13:00 -17°C° 0 mm 4 m/s 773 mmHg 83%
    14:00 -17°C° 0 mm 5 m/s 772 mmHg 82%
    15:00 -16°C° 0 mm 4 m/s 772 mmHg 82%
    16:00 -16°C° 0 mm 4 m/s 772 mmHg 83%
    17:00 -16°C° 0 mm 4 m/s 772 mmHg 83%
    18:00 -17°C° 0 mm 4 m/s 772 mmHg 85%
    19:00 -18°C° 0 mm 4 m/s 772 mmHg 87%
    20:00 -18°C° 0 mm 4 m/s 772 mmHg 89%
    21:00 -18°C° 0 mm 4 m/s 772 mmHg 90%
    22:00 -17°C° 0 mm 3 m/s 772 mmHg 90%
    23:00 -17°C° 0 mm 3 m/s 772 mmHg 91%
    Mostrar mais